Flag for Israel Weather past 2 weeks in Safed, Israel

Now
64 °F

Passing clouds.


Feels Like: 64 °F
Forecast: 57 / 80 °F
Wind: 2 mph from East

Location: Beirut Airport

Current Time: Apr 27, 2015 at 5:04:15 AM

Latest Report: Apr 27, 2015 at 4:00 AM


Visibility: N/A

Pressure: 29.95 "Hg

Humidity: 49%

Dew point: 45 °F

Location of SafedLocation

Historic Weather in Safed — Graph

°F

Safed temperature yesterday

Maximum temperature yesterday: 79 °F (at 5:00 PM)
Minimum temperature yesterday: 59 °F (at 1:00 AM)
Average temperature yesterday: 68 °F

Past Weeks' High & Low Weather Summary

 TemperatureHumidityPressure
High81 °F (Apr 20, 10:00 PM)83% (Apr 16, 9:00 PM)30.30 "Hg (Apr 16, 9:00 PM)
Low52 °F (Apr 12, 6:00 AM)14% (Apr 20, 10:00 PM)29.80 "Hg (Apr 20, 10:00 PM)
Average64 °F60%30.07 "Hg
* Reported Apr 12 3:00 AM — Apr 27 3:00 AM, Safed, Weather by CustomWeather, © 2015

Note: Actual official high and low records may vary slightly from our data, if they occured in-between our weather recording intervals... More about our weather records

Advertising

Safed weather history for previous 24 hours

 ConditionsComfort  
Time TempWeatherWind HumidityBarometerVisibility
3:00 AM
Mon, Apr 27
64 °FPassing clouds.3 mph49%29.95 "HgN/A
2:00 AM64 °FPassing clouds.No wind52%29.95 "HgN/A
1:00 AM66 °FPassing clouds.1 mph52%29.98 "HgN/A
12:00 AM68 °FPassing clouds.No wind46%29.98 "HgN/A
11:00 PM
Sun, Apr 26
70 °FPassing clouds.3 mph43%29.98 "HgN/A
10:00 PM68 °FPassing clouds.1 mph60%29.98 "HgN/A
9:00 PM72 °FClear.1 mph38%29.98 "HgN/A
8:00 PM72 °FPassing clouds.3 mph41%29.98 "HgN/A
7:00 PM72 °FPassing clouds.6 mph47%29.98 "HgN/A
6:00 PM77 °FPassing clouds.12 mph30%29.98 "HgN/A
5:00 PM79 °FPassing clouds.7 mph34%29.98 "HgN/A
4:00 PM77 °FSunny.10 mph36%29.98 "Hg10 mi
3:00 PM77 °FSunny.10 mph28%30.01 "Hg10 mi
2:00 PM72 °FSunny.12 mph61%30.04 "Hg10 mi
1:00 PM72 °FSunny.12 mph61%30.04 "Hg10 mi
12:00 PM70 °FSunny.10 mph64%30.07 "Hg10 mi
11:00 AM70 °FSunny.8 mph64%30.07 "Hg10 mi
10:00 AM70 °FSunny.7 mph53%30.07 "Hg10 mi
9:00 AM66 °FSunny.2 mph64%30.07 "Hg10 mi
8:00 AM63 °FSunny.2 mph56%30.07 "Hg10 mi
7:00 AM59 °FSunny.2 mph59%30.07 "Hg10 mi
6:00 AM59 °FClear.5 mph55%30.07 "Hg10 mi
5:00 AM59 °FClear.2 mph55%30.07 "Hg10 mi
Weather by CustomWeather, © 2015

See weather overviewHow to use our weather pages